Location: Newark
(47.5833°N, 8.1500°E)
Time: 08:38:10
(UTC+00:00)

Tiros 1 despin weight - Pass Details

Date: 30 October 2020
Orbit: 593 x 642 km, 48.2° (Epoch: 28 November)

Event Time Altitude Azimuth Distance (km) Brightness Sun altitude
Rises 02:22:34 0° 276° (W) 2,851 - -38.1°
Reaches altitude 10° 02:24:53 10° 277° (W) 1,941 - -37.7°
Maximum altitude 02:29:20 84° 4° (N) 604 - -37.0°
Exits shadow 02:33:15 13° 95° (E) 1,728 ? -36.4°
Drops below altitude 10° 02:33:45 10° 95° (E) 1,925 ? -36.3°
Sets 02:36:02 0° 96° (E) 2,825 ? -36.0°
